Islip, NY

2:37 AM EDT on April 30, 2017 (GMT -0400)
Long Island Mac Arthur

Weather History for KISP - March, 2013

Change the Weather History Date:

Saturday, March 30, 2013

  Actual Average Record
Temperature  
Mean Temperature 46 °F 44 °F  
Max Temperature 58 °F 52 °F 72 °F (1998)
Min Temperature 34 °F 35 °F 25 °F (2008)
Degree Days  
Heating Degree Days 19 21  
Month to date heating degree days 797 775  
Since 1 July heating degree days 4410 4670  
Cooling Degree Days 0 0  
Month to date cooling degree days 0 0  
Year to date cooling degree days 0 0  
Moisture  
Dew Point 27 °F    
Average Humidity 51    
Maximum Humidity 79    
Minimum Humidity 22    
Precipitation  
Precipitation 0.00 in 0.14 in 2.49 in (2001)
Month to date precipitation 2.51 4.30  
Year to date precipitation 10.64 11.20  
Snow  
Snow 0.00 in 0.00 in T in (2015)
Month to date snowfall 7.4 4.4  
Since 1 July snowfall 46.9 24.1  
Snow Depth 0.00 in    
Sea Level Pressure  
Sea Level Pressure 30.10 in    
Wind  
Wind Speed 8 mph (WNW)    
Max Wind Speed 18 mph    
Max Gust Speed 24 mph    
Visibility 10 miles    
Events      
T = Trace of Precipitation, MM = Missing Value Source: NWS Daily Summary

Daily Weather History Graph

Daily Weather History Graph

Search for Another Location

Airport or City:

Trip Planner

Search our weather history database for the weather conditions in past years. The results will help you decide how hot, cold, wet, or windy it might be!

Date:

Astronomy

Mar. 30, 2013 Rise Set
Actual Time 6:38 AM EDT 7:15 PM EDT
Civil Twilight 6:11 AM EDT 7:42 PM EDT
Nautical Twilight 5:38 AM EDT 8:15 PM EDT
Astronomical Twilight 5:05 AM EDT 8:49 PM EDT
Moon 11:20 PM EDT 8:30 AM EDT
Length of Visible Light 13h 31m
Length of Day
12h 36m
Waning Gibbous, 86% of the Moon is Illuminated
Mar 30
Waning Gibbous
Apr 3
Last Quarter
Apr 10
New
Apr 18
First Quarter
Apr 25
Full

Hourly Weather History & Observations

Time (EDT) Temp. Windchill Dew Point Humidity Pressure Visibility Wind Dir Wind Speed Gust Speed Precip Events Conditions
12:56 AM 39.9 °F 35.1 °F 27.0 °F 60% 30.10 in 10.0 mi NW 6.9 mph - N/A   Partly Cloudy
1:56 AM 39.9 °F 35.1 °F 27.0 °F 60% 30.10 in 10.0 mi WNW 6.9 mph - N/A   Clear
2:56 AM 39.0 °F 34.8 °F 26.1 °F 60% 30.10 in 10.0 mi WNW 5.8 mph - N/A   Clear
3:56 AM 37.0 °F 33.3 °F 26.1 °F 65% 30.10 in 10.0 mi NW 4.6 mph - N/A   Clear
4:56 AM 36.0 °F 33.3 °F 27.0 °F 70% 30.10 in 10.0 mi WNW 3.5 mph - N/A   Clear
5:56 AM 35.1 °F 32.2 °F 27.0 °F 72% 30.10 in 10.0 mi NNW 3.5 mph - N/A   Partly Cloudy
6:56 AM 34.0 °F - 27.0 °F 75% 30.12 in 10.0 mi Calm Calm - N/A   Scattered Clouds
7:56 AM 39.9 °F 33.9 °F 30.0 °F 68% 30.13 in 10.0 mi WNW 9.2 mph - N/A   Partly Cloudy
8:56 AM 45.0 °F 40.6 °F 30.9 °F 58% 30.14 in 10.0 mi NW 8.1 mph - N/A   Partly Cloudy
9:56 AM 48.9 °F - 28.0 °F 44% 30.14 in 10.0 mi NW 10.4 mph 23.0 mph N/A   Partly Cloudy
10:56 AM 51.1 °F - 27.0 °F 39% 30.14 in 10.0 mi NNW 12.7 mph 18.4 mph N/A   Partly Cloudy
11:56 AM 52.0 °F - 23.0 °F 32% 30.13 in 10.0 mi NW 13.8 mph 19.6 mph N/A   Partly Cloudy
12:56 PM 54.0 °F - 23.0 °F 30% 30.11 in 10.0 mi North 11.5 mph 16.1 mph N/A   Scattered Clouds
1:56 PM 55.0 °F - 21.0 °F 27% 30.09 in 10.0 mi North 8.1 mph - N/A   Scattered Clouds
2:56 PM 55.0 °F - 18.0 °F 23% 30.07 in 10.0 mi WNW 15.0 mph 21.9 mph N/A   Scattered Clouds
3:56 PM 54.0 °F - 19.0 °F 25% 30.06 in 10.0 mi NW 12.7 mph - N/A   Scattered Clouds
4:56 PM 55.9 °F - 19.0 °F 24% 30.06 in 10.0 mi NW 8.1 mph - N/A   Mostly Cloudy
5:56 PM 51.1 °F - 28.9 °F 43% 30.07 in 10.0 mi SW 12.7 mph 19.6 mph N/A   Scattered Clouds
6:56 PM 46.9 °F - 30.0 °F 52% 30.08 in 10.0 mi SW 12.7 mph - N/A   Partly Cloudy
7:56 PM 45.0 °F 40.6 °F 30.9 °F 58% 30.09 in 10.0 mi SW 8.1 mph - N/A   Partly Cloudy
8:56 PM 43.0 °F 40.3 °F 32.0 °F 65% 30.11 in 10.0 mi SW 4.6 mph - N/A   Clear
9:56 PM 41.0 °F 39.0 °F 32.0 °F 70% 30.11 in 10.0 mi WSW 3.5 mph - N/A   Clear
10:56 PM 39.9 °F 37.8 °F 32.0 °F 73% 30.11 in 10.0 mi SSW 3.5 mph - N/A   Clear
11:56 PM 39.9 °F - 33.1 °F 77% 30.12 in 10.0 mi Calm Calm - N/A   Clear